Starlink 5777

operational
NORAD ID: 56027 Int'l Des: 2023-042 Owner: SPXS Country: US Constellation: starlink
LEOCIRCULAR

关于 Starlink 5777

正在加载描述...

实时位置

正在加载3D地球...

即将过境

高度历史

Altitude vs Time

uPlot chart will show altitude changes over time

两行轨道根数

1 56027U 23042AT 26063.00102863 .00000646 00000-0 62898-4 0 9991
2 56027 43.0044 74.0903 0001479 264.0561 96.0113 15.02535615162209
Epoch: Mar 4, 2026 • Age: 3 hours

当前状态

高度 571.4 km
速度 7.58 km/s
星下点 -43.01°S, 144.99°E
发射日期 Mar 24, 2023
运行时间 2.9 years
类型 internet

技术详情

分类 Payload
质量 305.00 kg
干质量 290.00 kg
总质量 305.00 kg
长度 0.20 m
直径 2.80 m
跨度 9.00 m
形状 Box + pan
制造商 SPXS
平台类型 Starlink
阶段状态 In Orbit
所有者/国家 SPXS/US

大型星座

Loading constellations...